Weather History for KOZW - March, 2014

Change the Weather History Date:

Saturday, March 8, 2014

  Actual Average Record
Temperature  
Mean Temperature 30 °F -  
Max Temperature 38 °F 37 °F 60 °F (2002)
Min Temperature 21 °F 20 °F 8 °F (2007)
Degree Days  
Heating Degree Days 36    
Moisture  
Dew Point 23 °F    
Average Humidity 77    
Maximum Humidity 93    
Minimum Humidity 59    
Precipitation  
Precipitation 0.00 in - - ()
Sea Level Pressure  
Sea Level Pressure 30.04 in    
Wind  
Wind Speed 6 mph (NNW)    
Max Wind Speed 10 mph    
Max Gust Speed 16 mph    
Visibility 8 miles    
Events Rain , Snow    
Averages and records for this station are not official NWS values.
T = Trace of Precipitation, MM = Missing Value Source: NWS Daily Summary

Daily Weather History Graph

Daily Weather History Graph

Search for Another Location

Airport or City:

Trip Planner

Search our weather history database for the weather conditions in past years. The results will help you decide how hot, cold, wet, or windy it might be!

Date:

Astronomy

Mar. 08, 2014 Rise Set
Actual Time 6:59 AM EST 6:34 PM EST
Civil Twilight 6:31 AM EST 7:02 PM EST
Nautical Twilight 5:59 AM EST 7:34 PM EST
Astronomical Twilight 5:26 AM EST 8:07 PM EST
Moon 11:32 AM EST (3/8) 1:39 AM EST (3/8)
Length of Visible Light 12h 30m
Length of Day
11h 34m
First Quarter, 51% of the Moon is Illuminated
Mar 8
First Quarter
Mar 16
Full
Mar 23
Last Quarter
Mar 30
New
Apr 7
First Quarter

Hourly Weather History & Observations

Time (EST) Temp. Windchill Dew Point Humidity Pressure Visibility Wind Dir Wind Speed Gust Speed Precip Events Conditions
12:15 AM 38.5 °F 32.1 °F 25.3 °F 59% 29.89 in 10.0 mi West 9.2 mph - N/A   Overcast
12:35 AM 38.5 °F 32.7 °F 25.5 °F 60% 29.90 in 10.0 mi West 8.1 mph - N/A   Overcast
12:54 AM 38.3 °F 31.9 °F 25.7 °F 61% 29.90 in 10.0 mi West 9.2 mph - N/A   Overcast
1:15 AM 37.8 °F 31.8 °F 25.9 °F 62% 29.90 in 10.0 mi West 8.1 mph - N/A   Overcast
1:35 AM 37.4 °F 31.4 °F 26.4 °F 65% 29.90 in 7.0 mi West 8.1 mph - N/A Rain Light Rain
1:54 AM 36.5 °F 31.0 °F 27.9 °F 71% 29.90 in 4.0 mi West 6.9 mph - N/A Rain Light Rain
2:15 AM 34.9 °F 30.8 °F 30.2 °F 83% 29.90 in 4.0 mi West 4.6 mph - N/A   Overcast
2:35 AM 34.7 °F 30.6 °F 31.1 °F 87% 29.90 in 5.0 mi West 4.6 mph - N/A   Light Drizzle
2:54 AM 34.2 °F 29.0 °F 31.1 °F 89% 29.91 in 4.0 mi West 5.8 mph - N/A Snow Light Snow
3:15 AM 34.2 °F 28.2 °F 31.6 °F 90% 29.91 in 4.0 mi West 6.9 mph - N/A Snow Light Snow
3:35 AM 34.0 °F 28.0 °F 31.6 °F 91% 29.92 in 4.0 mi West 6.9 mph - N/A Snow Light Snow
3:54 AM 33.8 °F 28.6 °F 31.6 °F 92% 29.92 in 4.0 mi WNW 5.8 mph - N/A   Overcast
4:15 AM 33.4 °F 28.1 °F 31.3 °F 92% 29.92 in 5.0 mi NW 5.8 mph - N/A   Overcast
4:35 AM 34.3 °F 28.4 °F 29.3 °F 82% 29.92 in 7.0 mi NNW 6.9 mph - N/A   Overcast
4:54 AM 34.2 °F 29.0 °F 28.2 °F 79% 29.93 in 7.0 mi North 5.8 mph - N/A   Overcast
5:15 AM 33.8 °F 25.8 °F 28.0 °F 79% 29.95 in 7.0 mi NNW 10.4 mph 16.1 mph N/A   Overcast
5:34 AM 33.3 °F 25.7 °F 28.2 °F 82% 29.95 in 7.0 mi North 9.2 mph - N/A   Overcast
5:55 AM 32.9 °F 26.7 °F 28.4 °F 84% 29.96 in 7.0 mi North 6.9 mph - N/A   Overcast
6:15 AM 32.5 °F 27.1 °F 28.2 °F 84% 29.98 in 7.0 mi North 5.8 mph - N/A   Overcast
6:34 AM 32.0 °F 24.8 °F 27.9 °F 85% 29.99 in 5.0 mi NNE 8.1 mph - N/A   Overcast
6:55 AM 31.5 °F 24.2 °F 28.2 °F 88% 29.99 in 4.0 mi NNE 8.1 mph - N/A   Overcast
7:14 AM 30.0 °F 23.2 °F 27.5 °F 90% 30.01 in 3.0 mi North 6.9 mph - N/A   Overcast
7:35 AM 29.3 °F 22.3 °F 27.5 °F 93% 30.01 in 3.0 mi North 6.9 mph - N/A   Overcast
7:54 AM 29.3 °F 23.2 °F 26.8 °F 90% 30.02 in 5.0 mi NNE 5.8 mph - N/A   Overcast
8:15 AM 29.7 °F 23.7 °F 25.9 °F 86% 30.03 in 5.0 mi North 5.8 mph - N/A   Overcast
8:35 AM 29.3 °F 22.3 °F 25.7 °F 86% 30.04 in 5.0 mi North 6.9 mph - N/A   Overcast
8:54 AM 29.5 °F 22.5 °F 25.3 °F 85% 30.05 in 7.0 mi NNE 6.9 mph - N/A   Overcast
9:15 AM 29.8 °F 23.0 °F 24.1 °F 79% 30.05 in 7.0 mi NNE 6.9 mph - N/A   Overcast
9:34 AM 29.8 °F 23.9 °F 23.0 °F 76% 30.06 in 10.0 mi North 5.8 mph - N/A   Overcast
9:55 AM 30.0 °F 24.1 °F 23.2 °F 76% 30.06 in 7.0 mi North 5.8 mph - N/A   Overcast
10:15 AM 29.7 °F 21.3 °F 23.5 °F 78% 30.06 in 7.0 mi North 9.2 mph - N/A   Overcast
10:34 AM 29.7 °F 23.7 °F 23.7 °F 79% 30.07 in 7.0 mi North 5.8 mph - N/A   Overcast
10:55 AM 29.1 °F 23.0 °F 23.7 °F 80% 30.08 in 7.0 mi North 5.8 mph - N/A   Overcast
11:15 AM 28.6 °F 20.7 °F 23.0 °F 80% 30.09 in 7.0 mi NNW 8.1 mph - N/A   Overcast
11:34 AM 28.8 °F 21.7 °F 22.8 °F 78% 30.09 in 7.0 mi North 6.9 mph - N/A   Overcast
11:55 AM 28.4 °F 22.2 °F 22.8 °F 80% 30.09 in 7.0 mi North 5.8 mph - N/A   Overcast
12:14 PM 28.2 °F 21.0 °F 22.1 °F 78% 30.09 in 10.0 mi NNE 6.9 mph - N/A   Overcast
12:35 PM 28.4 °F 21.2 °F 21.4 °F 75% 30.09 in 10.0 mi NNE 6.9 mph - N/A   Overcast
12:55 PM 28.8 °F 21.7 °F 20.8 °F 72% 30.09 in 10.0 mi North 6.9 mph - N/A   Overcast
1:15 PM 28.9 °F 22.8 °F 20.5 °F 71% 30.08 in 10.0 mi North 5.8 mph - N/A   Overcast
1:35 PM 28.4 °F 22.2 °F 20.1 °F 71% 30.08 in 10.0 mi North 5.8 mph - N/A   Overcast
1:55 PM 28.4 °F 22.2 °F 19.9 °F 71% 30.08 in 10.0 mi North 5.8 mph - N/A   Overcast
2:15 PM 28.2 °F 21.0 °F 19.8 °F 71% 30.08 in 10.0 mi NNW 6.9 mph - N/A   Overcast
2:35 PM 28.2 °F 22.0 °F 19.4 °F 70% 30.08 in 10.0 mi North 5.8 mph - N/A   Overcast
2:55 PM 28.4 °F 22.2 °F 19.8 °F 70% 30.08 in 10.0 mi NNW 5.8 mph - N/A   Overcast
3:15 PM 28.2 °F 22.0 °F 19.2 °F 69% 30.08 in 10.0 mi North 5.8 mph - N/A   Overcast
3:35 PM 28.4 °F 22.2 °F 19.0 °F 68% 30.08 in 10.0 mi North 5.8 mph - N/A   Overcast
3:54 PM 28.8 °F 22.6 °F 18.5 °F 66% 30.09 in 10.0 mi NNW 5.8 mph - N/A   Overcast
4:15 PM 28.4 °F 21.2 °F 18.9 °F 67% 30.08 in 10.0 mi North 6.9 mph - N/A   Overcast
4:35 PM 28.2 °F 22.0 °F 18.7 °F 67% 30.09 in 10.0 mi North 5.8 mph - N/A   Overcast
4:54 PM 27.5 °F 23.6 °F 18.3 °F 68% 30.09 in 10.0 mi North 3.5 mph - N/A   Overcast
5:15 PM 27.5 °F 20.2 °F 18.9 °F 70% 30.09 in 10.0 mi North 6.9 mph - N/A   Overcast
5:35 PM 27.3 °F 20.9 °F 18.9 °F 70% 30.10 in 10.0 mi North 5.8 mph - N/A   Overcast
5:54 PM 26.8 °F 21.4 °F 18.3 °F 70% 30.10 in 10.0 mi North 4.6 mph - N/A   Overcast
6:15 PM 26.8 °F 20.2 °F 18.5 °F 71% 30.11 in 10.0 mi North 5.8 mph - N/A   Overcast
6:35 PM 26.6 °F 20.0 °F 18.3 °F 71% 30.11 in 10.0 mi North 5.8 mph - N/A   Overcast
6:54 PM 26.4 °F - 18.1 °F 71% 30.11 in 10.0 mi Calm Calm - N/A   Overcast
7:15 PM 26.4 °F - 18.3 °F 71% 30.12 in 10.0 mi Calm Calm - N/A   Overcast
7:35 PM 26.4 °F - 18.3 °F 71% 30.12 in 10.0 mi Calm Calm - N/A   Overcast
7:54 PM 25.7 °F - 18.0 °F 73% 30.12 in 10.0 mi Calm Calm - N/A   Mostly Cloudy
8:15 PM 25.7 °F - 18.1 °F 73% 30.13 in 10.0 mi Calm Calm - N/A   Mostly Cloudy
8:35 PM 24.4 °F - 18.0 °F 76% 30.12 in 10.0 mi Calm Calm - N/A   Mostly Cloudy
8:54 PM 23.0 °F - 17.6 °F 80% 30.12 in 10.0 mi Calm Calm - N/A   Scattered Clouds
9:15 PM 23.0 °F - 17.6 °F 80% 30.13 in 10.0 mi Calm Calm - N/A   Clear
9:35 PM 22.5 °F - 17.4 °F 81% 30.13 in 10.0 mi Calm Calm - N/A   Clear
9:54 PM 22.8 °F - 18.0 °F 82% 30.14 in 10.0 mi Calm Calm - N/A   Clear
10:15 PM 23.0 °F - 18.5 °F 83% 30.14 in 10.0 mi Calm Calm - N/A   Clear
10:35 PM 22.6 °F 18.0 °F 18.3 °F 83% 30.13 in 10.0 mi SW 3.5 mph - N/A   Clear
10:55 PM 21.9 °F 17.2 °F 18.3 °F 86% 30.13 in 10.0 mi SW 3.5 mph - N/A   Clear
11:15 PM 21.7 °F 15.5 °F 17.6 °F 84% 30.14 in 10.0 mi West 4.6 mph - N/A   Clear
11:35 PM 21.7 °F 12.3 °F 17.8 °F 85% 30.14 in 10.0 mi West 8.1 mph - N/A   Clear
11:55 PM 22.3 °F 13.0 °F 17.2 °F 81% 30.14 in 10.0 mi West 8.1 mph - N/A   Clear